#timestamp,LO_Frequency,Hit,StdDev 
1540774815.3,286047002.1,N
1540774835.1,286047004.1,N
1540774855.9,286047002.5,N
1540774875.7,286047000.4,N
1540774895.6,286046998.8,N
1540774915.4,286046999.9,N
1540774935.2,286047002.4,N
1540774955.1,286047001.8,N
1540774956.0,286047001.8,N
1540774975.8,286047000.1,N
1540774995.7,286047001.5,N
1540775015.5,286047002.4,N
1540775035.3,286047004.0,N
1540775055.2,286047004.1,N
1540775075.0,286047001.8,N
1540775075.9,286047001.8,N
1540775095.7,286046998.6,N
1540775115.6,286046996.6,N
1540775135.4,286046997.0,N
1540775155.3,286046999.2,N
1540775175.1,286046999.2,N
1540775176.0,286046999.2,N
1540775195.8,286046999.0,N
1540775215.7,286047000.0,N
1540775235.5,286047000.9,N
1540775255.3,286047000.9,N
1540775275.2,286047001.1,N
1540775295.0,286047000.9,N
1540775295.9,286047000.9,N
1540775315.8,286047000.7,N
1540775335.6,286047000.3,N
1540775355.4,286047002.4,N
1540775375.3,286047002.7,N
1540775395.1,286047000.9,N
1540775415.9,286047002.6,N
1540775435.7,286047000.1,N
1540775455.5,286047000.5,N
1540775475.4,286047000.0,N
1540775495.2,286047000.7,N
1540775515.0,286046998.1,N
1540775515.9,286046998.1,N
1540775535.8,286047001.2,N
1540775555.6,286046998.6,N
1540775575.5,286046998.6,N
1540775595.3,286046999.6,N
1540775615.1,286046997.0,N
1540775635.9,286046999.5,N
1540775655.7,286046999.5,N
1540775675.5,286046997.7,N
1540775695.4,286046996.7,N
1540775715.2,286046997.3,N
1540775735.1,286046996.8,N
1540775736.0,286046996.8,N
1540775755.8,286046997.3,N
1540775775.6,286046997.1,N
1540775795.5,286046997.0,N
1540775815.3,286046995.0,N
1540775835.1,286046995.8,N
1540775855.9,286046996.3,N
1540775875.7,286046996.4,N
1540775895.6,286046996.4,N
1540775915.4,286046993.9,N
1540775935.2,286046994.0,N
1540775955.1,286046994.7,N
1540775956.0,286046994.7,N
1540775975.8,286046992.3,Y
1540775995.6,286046993.9,P
1540776015.5,286046996.1,N
1540776035.3,286046993.4,P
1540776055.2,286046994.2,Y
1540776075.9,286046995.0,P
1540776095.7,286046994.9,P
1540776115.6,286046997.8,P
1540776135.4,286046995.7,Y
1540776155.3,286047000.8,P
1540776175.1,286046998.8,N
1540776176.0,286046998.8,N
1540776195.8,286046997.0,N
1540776215.7,286046997.2,N
1540776235.5,286046998.0,N
1540776255.3,286046995.1,Y
1540776275.2,286046996.5,P
1540776295.0,286046999.5,N
1540776295.9,286046999.5,N
1540776315.8,286046997.0,N
1540776335.6,286046995.0,Y
1540776355.4,286046997.4,P
1540776375.3,286046997.2,P
1540776395.1,286046996.7,P
1540776415.9,286046994.9,Y
1540776435.7,286046998.3,P
1540776455.5,286047001.0,N
1540776475.4,286047000.6,N
1540776495.2,286047000.8,N
1540776515.1,286046997.1,N
1540776516.0,286046997.1,N
1540776535.8,286046997.6,N
1540776555.6,286046998.0,N
1540776575.5,286046997.5,N
1540776595.3,286046997.5,N
1540776615.1,286046995.6,N
1540776635.9,286046996.1,N
1540776655.7,286046995.9,N
1540776675.6,286046993.5,Y
1540776695.4,286046995.1,P
1540776715.2,286046995.3,P
1540776735.1,286046995.4,P
1540776736.0,286046995.4,Y
1540776755.8,286047000.0,P
1540776775.7,286047001.0,N
1540776795.5,286046998.2,N
1540776815.3,286047000.7,N
1540776835.2,286046998.6,N
1540776855.0,286046998.3,N
1540776855.9,286046998.3,N
1540776875.8,286046996.5,N
1540776895.6,286046994.9,Y
1540776915.4,286046995.3,P
1540776935.3,286046995.4,N
1540776955.1,286046994.9,P
1540776975.9,286046995.1,Y
1540776995.7,286047001.2,P
1540777015.5,286046998.4,N
1540777035.4,286046999.6,N
1540777055.2,286046995.0,N
1540777075.0,286046995.6,N
1540777076.0,286046995.6,N
1540777095.8,286046995.1,N
1540777115.6,286046993.4,Y
1540777135.5,286046997.7,P
1540777155.3,286046997.4,P
1540777175.1,286046997.3,P
1540777195.9,286046997.8,Y
1540777215.7,286046999.0,P
1540777235.6,286046999.1,N
1540777255.4,286046997.0,P
1540777275.2,286046999.1,N
1540777295.1,286046997.0,Y
1540777296.0,286046997.0,P
1540777315.8,286046996.7,P
1540777335.7,286046997.1,P
1540777355.5,286046997.3,Y
1540777375.3,286046998.1,P
1540777395.2,286046998.6,P
1540777415.0,286046998.5,N
1540777415.9,286046998.5,N
1540777435.7,286046998.9,N
1540777455.6,286046998.6,N
1540777475.4,286046999.0,N
1540777495.3,286046999.5,N
1540777515.1,286046999.5,N
1540777516.0,286046999.5,N
1540777535.8,286046997.3,Y
1540777555.7,286046999.1,P
1540777575.5,286046998.9,P
1540777595.3,286046997.4,P
1540777615.2,286046997.5,Y
1540777635.0,286046996.9,P
1540777635.9,286046996.9,P
1540777655.8,286046996.9,P
1540777675.6,286046995.1,Y
1540777695.4,286046996.9,P
1540777715.3,286046997.7,P
1540777735.1,286046996.4,P
1540777755.9,286046996.2,Y
1540777775.7,286046998.8,P
1540777795.5,286047001.2,N
1540777815.4,286047000.3,N
1540777835.2,286046998.5,N
1540777855.0,286046999.4,N
1540777855.9,286046999.4,N
1540777875.8,286046999.0,N
1540777895.6,286046999.1,N
1540777915.5,286046999.5,N
1540777935.3,286046996.5,Y
1540777955.1,286046998.7,P
1540777975.9,286046997.5,P
1540777995.7,286046997.1,P
1540778015.5,286046997.6,N
1540778035.4,286046995.2,Y
1540778055.2,286046997.5,P
1540778075.1,286046997.6,P
1540778076.0,286046997.6,P
1540778095.8,286046998.9,Y
1540778115.6,286047000.8,P
1540778135.5,286047001.1,N
1540778155.3,286046998.7,N
1540778175.2,286046998.8,N
1540778195.9,286046997.3,N
1540778215.7,286046996.7,N
1540778235.6,286046995.3,Y
1540778255.4,286046996.8,P
1540778275.2,286046998.0,N
1540778295.1,286046997.1,P
1540778296.0,286046997.1,Y
1540778315.8,286046998.3,P
1540778335.7,286046999.0,P
1540778355.5,286046996.5,P
1540778375.3,286046999.3,N
1540778395.2,286046998.6,N
